{"data":{"norad_id":55353,"intl_designator":"2023-013Y","name":"STARLINK-5608","alt_names":[],"object_type":"PAYLOAD","status":"ACTIVE","operator":null,"country":"US","launch_date":"2023-01-26","launch_site_code":"AFETR","launch_vehicle":null,"mission":null,"orbit_class":"UNKNOWN","rcs_meters":null,"size_class":null,"mass_kg":null,"dimensions":null,"purposes":["comms"],"wikipedia_slug":null,"has_3d_model":false,"image_url":null,"decayed_at":null,"tle_current":{"epoch":"2026-09-20T12:36:09.477216Z","epoch_age_seconds":94488,"freshness":"FRESH","line1":"1 55353U 23013Y   26263.52510969 -.00001386  00000+0 -40877-4 0  9995","line2":"2 55353  43.0016 279.4388 0001569 269.5457  90.5215 15.27563423201516","mean_motion":15.27563423,"eccentricity":0.0001569,"inclination_deg":43.0016,"raan_deg":279.4388,"arg_perigee_deg":269.5457,"mean_anomaly_deg":90.5215,"bstar":-4.0877e-5,"rev_number":20151,"period_min":94.26777168911,"perigee_km":482.02220610342,"apogee_km":484.17526187674,"semimajor_km":6861.2357339901,"source":"CELESTRAK","updated_at":"2026-09-21T09:00:33.183567Z"}}}